User: anonymous   Login
Location: Myra
(43.4160°N, 88.0960°W)
Time: 14:14:14
(UTC-05:00)
Language:

SL-8 R/B - Orbit

View from above orbital plane
View from above orbital plane
View from above satellite
View from above satellite

Ground track
Ground track

The orbit data is extracted from the following two-line orbital elements,

1 33066U 08031G   18170.57091502 -.00000170  00000-0  43224-5 0  9995
2 33066  48.4441 191.8580 0008135 231.6561 128.3619 14.69601731536796
Epoch (UTC): 19 June 2018 13:42:07
Eccentricity: 0.0008135
inclination: 48.4441°
perigee height: 656 km
apogee height: 668 km
right ascension of ascending node: 191.8580°
argument of perigee: 231.6561°
revolutions per day: 14.69601731
mean anomaly at epoch: 128.3619°
orbit number at epoch: 53679

The dashed part of the orbit path shows where the satellite is in the earth's shadow,  

DLR